[[{"header":{"parameterUnit":"m.s-1","parameterCategory":2,"la1":30.2991,"la2":30.254,"lo1":-89.0895,"lo2":-89.0444,"dy":0.0017,"dx":0.0017,"nx":28,"ny":28,"refTime":"2025-05-18T09:00:00:Z","depth":"0","parameterNumber":2,"parameterNumberName":"U-component_of_CURRENTS"},"data":[0,0,0,0,0,0,0,0,0,0,0,0,0,0,0,0,0,0,0,0,0,0,0,0,0,0,0,0,0,0,0,0,0,0,0,0,0,0,0,0,0,0,0,0,0,0,0,0,0,0,0,0,0,0,0,0,0,0,0.2542,0.2543,0,0.2732,0.2735,0.2738,0.2828,0.2827,0.2826,0.2825,0.2995,0.3001,0.3006,0,0,0,0,0,0,0,0,0,0,0,0,0,0.2462,0.2462,0.2542,0.2543,0.2545,0.2732,0.2735,0.2739,0.2828,0.2827,0.2825,0.2824,0.2994,0.3,0.3007,0,0,0,0,0,0,0,0,0,0,0,0,0,0.2567,0.2462,0.2542,0.2605,0.2612,0.2731,0.2735,0.274,0.2828,0.2826,0.2825,0.2824,0.2991,0.2999,0.3008,0.3088,0,0,0.3033,0.3036,0,0,0,0,0,0,0,0,0.2561,0.2571,0.2594,0.26,0.2608,0.2746,0.2769,0.2852,0.2828,0.2756,0.2825,0.2823,0.2905,0.292,0.2973,0.3096,0.3103,0.3033,0.3038,0.3042,0.3044,0,0,0,0,0,0,0,0.2553,0.2565,0.2627,0.2595,0.2604,0.2693,0.2706,0.2787,0.2844,0.2762,0.2767,0.2773,0.291,0.2965,0.2978,0.3106,0.3033,0.304,0.3045,0.3049,0.3304,0.3305,0,0,0,0,0,0,0.2501,0.2557,0.2621,0.2632,0.257,0.2694,0.2709,0.2711,0.2843,0.286,0.2774,0.2776,0.2952,0.2968,0.2984,0.3121,0.3042,0.3049,0.3054,0.3302,0.3304,0.3306,0,0,0,0,0,0,0.2499,0.2505,0.2613,0.2591,0.261,0.2695,0.2699,0.2716,0.2764,0.2851,0.2868,0.2802,0.2952,0.2972,0.3103,0.3126,0.3053,0.3061,0.33,0.3302,0.3305,0.3372,0,0,0,0,0,0,0.2496,0.2503,0.2504,0.2587,0.2609,0.2689,0.2699,0.272,0.2766,0.2771,0.2881,0.2896,0.2952,0.3091,0.3111,0.3136,0.3067,0.3297,0.3301,0.3304,0.3368,0.3377,0.3385,0,0,0,0,0,0.2492,0.25,0.2503,0.2511,0.2601,0.2689,0.2711,0.2773,0.2768,0.2809,0.2906,0.2892,0.3124,0.3102,0.3125,0.3152,0.3296,0.33,0.3304,0.3364,0.3375,0.3385,0,0,0,0,0,0,0.2482,0.2511,0.2516,0.2535,0.2602,0.27,0.2738,0.277,0.2879,0.2881,0.2956,0.2983,0.3097,0.3118,0.309,0.323,0.3191,0.32,0.3228,0.3239,0.3248,0.3243,0.3074,0,0,0,0,0,0.2469,0.2474,0.2532,0.2552,0.2575,0.2653,0.2696,0.2736,0.283,0.2874,0.2961,0.3042,0.3135,0.3181,0.3268,0.3364,0.3363,0.3381,0.3389,0.3397,0.3407,0.3456,0.347,0.332,0.332,0.3319,0,0,0.247,0.2487,0.2491,0.2548,0.2602,0.2685,0.2679,0.2742,0.283,0.2876,0.3031,0.309,0.3171,0.3292,0.3337,0.3311,0.3434,0.3402,0.3408,0.3414,0.3461,0.3476,0.3489,0.3322,0.3322,0.3321,0,0,0.2485,0.2487,0.2503,0.2564,0.2628,0.2697,0.2706,0.281,0.2869,0.3018,0.3064,0.3147,0.33,0.3366,0.3414,0.3516,0.3486,0.3511,0.3553,0.3601,0.3614,0.3625,0.362,0.363,0.3506,0.3506,0.3507,0,0.2487,0.2518,0.2531,0.2587,0.2652,0.2699,0.2778,0.2863,0.3008,0.3062,0.307,0.3281,0.3341,0.3469,0.3511,0.3536,0.3539,0.3511,0.3612,0.3623,0.3634,0.3626,0.3637,0.351,0.351,0.3509,0.3509,0,0.2532,0.2573,0.2596,0.2683,0.2761,0.2832,0.2937,0.3024,0.3091,0.3168,0.3301,0.3399,0.3505,0.3525,0.3569,0.3659,0.3628,0.3624,0.3584,0.3653,0.364,0.365,0.3516,0.3514,0.3513,0.3512,0,0,0.2509,0.2603,0.2617,0.2685,0.2816,0.2895,0.303,0.3166,0.3242,0.3358,0.3463,0.3607,0.3604,0.3656,0.3681,0.3724,0.3798,0.3708,0.3709,0.3699,0.3871,0.3699,0.3692,0.3815,0.3818,0.382,0.3823,0,0.255,0.2653,0.2704,0.2862,0.2942,0.304,0.3161,0.3284,0.3387,0.3504,0.356,0.367,0.3667,0.3703,0.3754,0.3802,0.3831,0.3795,0.3809,0.3809,0.3646,0.3701,0.3479,0.3451,0.3833,0.3834,0.3835,0,0.2585,0.2661,0.2778,0.2948,0.2989,0.309,0.3277,0.3391,0.3533,0.3602,0.3689,0.3734,0.3828,0.3802,0.3897,0.3874,0.3881,0.3896,0.3896,0.3722,0.3656,0.345,0.3454,0.3367,0.385,0.3849,0.3848,0,0.2566,0.2728,0.2819,0.2883,0.3066,0.3139,0.3248,0.3402,0.3499,0.3644,0.3707,0.3813,0.3863,0.3912,0.394,0.3932,0.4014,0.4001,0.3843,0.3829,0.3633,0.3597,0.355,0.4059,0.4059,0.4059,0.4059,0,0.259,0.2677,0.2811,0.2867,0.3006,0.3129,0.3265,0.3382,0.3523,0.3619,0.3725,0.3804,0.3898,0.3951,0.3967,0.392,0.403,0.3856,0.383,0.3645,0.3611,0.3519,0.351,0.4059,0.4059,0.4059,0.4059,0,0.2541,0.262,0.2744,0.292,0.2985,0.3077,0.3273,0.337,0.3489,0.3616,0.3659,0.3817,0.386,0.3909,0.3981,0.3923,0.3784,0.3871,0.3615,0.3557,0.3276,0.328,0.3102,0.3023,0.3682,0.3678,0.3675,0,0.252,0.2563,0.2749,0.2829,0.2904,0.3056,0.3157,0.3333,0.3432,0.3611,0.3664,0.375,0.3778,0.3791,0.3709,0.365,0.3626,0.342,0.336,0.3228,0.3216,0.3139,0.3084,0.3128,0.312,0.3114,0.3109,0,0.2494,0.2533,0.2636,0.2787,0.2908,0.3041,0.3191,0.3255,0.343,0.35,0.358,0.3604,0.3584,0.3419,0.3334,0.3287,0.3215,0.3284,0.3241,0.2848,0.2671,0.2591,0.3142,0.3053,0.3059,0.3063,0.3066,0.3068,0.2466,0.2518,0.2633,0.2778,0.2902,0.2989,0.302,0.3143,0.3218,0.3247,0.3385,0.3302,0.3209,0.3027,0.2966,0.2685,0.2784,0.2573,0.261,0.256,0.2409,0.2798,0.2621,0.2624,0.2627,0.2629,0.2631,0,0.2444,0.2512,0.2637,0.2776,0.2845,0.2928,0.3021,0.2984,0.296,0.3002,0.2987,0.2793,0.2592,0.2498,0.2204,0.2051,0.1995,0.2003,0.1888,0.1889,0.2305,0.2205,0.1814,0.1814,0.1814,0.1814,0.1814,0.1815,0.2444,0.2518,0.2584,0.2685,0.2752,0.2738,0.2724,0.2656,0.2634,0.2458,0.2306,0.2266,0.2191,0.1962,0.1705,0.1649,0.1574,0.1416,0.1539,0.1871,0.1929,0.1984,0.1888,0.1438,0.1437,0.0992,0.0989,0.0986]},{"header":{"parameterUnit":"m.s-1","parameterCategory":2,"la1":30.2991,"la2":30.254,"lo1":-89.0895,"lo2":-89.0444,"dy":0.0017,"dx":0.0017,"nx":28,"ny":28,"refTime":"2025-05-18T09:00:00:Z","depth":"0","parameterNumber":3,"parameterNumberName":"V-component_of_CURRENTS"},"data":[0,0,0,0,0,0,0,0,0,0,0,0,0,0,0,0,0,0,0,0,0,0,0,0,0,0,0,0,0,0,0,0,0,0,0,0,0,0,0,0,0,0,0,0,0,0,0,0,0,0,0,0,0,0,0,0,0,0,0.0119,0.0119,0,0.0063,0.0062,0.0062,0.0026,0.0026,0.0026,0.0025,-0.0004,-0.0005,-0.0005,0,0,0,0,0,0,0,0,0,0,0,0,0,0.0152,0.0151,0.0119,0.0119,0.0118,0.0063,0.0062,0.0061,0.0026,0.0026,0.0026,0.0025,-0.0004,-0.0005,-0.0006,0,0,0,0,0,0,0,0,0,0,0,0,0,0.012,0.0151,0.0119,0.0095,0.0092,0.0063,0.0062,0.0061,0.0026,0.0026,0.0025,0.0025,-0.0004,-0.0005,-0.0006,-0.0009,0,0,-0.0009,-0.0009,0,0,0,0,0,0,0,0,0.0122,0.0118,0.0099,0.0096,0.0093,0.0052,0.0063,0.0039,0.0026,0.005,0.0025,0.0025,0.0018,0.0015,0.0003,-0.0011,-0.0012,-0.0009,-0.001,-0.001,-0.001,0,0,0,0,0,0,0,0.0124,0.012,0.0096,0.0098,0.0095,0.0071,0.0067,0.0058,0.0035,0.0047,0.0045,0.0041,0.0017,0.0004,0.0002,-0.0012,-0.0009,-0.001,-0.001,-0.0011,0.0076,0.0079,0,0,0,0,0,0,0.0136,0.0123,0.0097,0.0094,0.0109,0.0071,0.0066,0.0065,0.0034,0.003,0.0041,0.0039,0.0006,0.0003,0.0001,0.0062,-0.001,-0.0011,-0.0012,0.0073,0.0077,0.008,0,0,0,0,0,0,0.0137,0.0134,0.01,0.0108,0.0102,0.0071,0.0069,0.0064,0.0054,0.0029,0.0025,0.0039,0.0006,0.0002,0.001,0.0058,-0.0011,-0.0012,0.007,0.0074,0.0078,0.014,0,0,0,0,0,0,0.0138,0.0135,0.0138,0.0109,0.0102,0.0092,0.007,0.0063,0.0052,0.005,0.0026,0.0022,0.0005,0.0012,0.0009,0.0055,-0.0013,0.0066,0.0072,0.0077,0.0135,0.0146,0.0156,0,0,0,0,0,0.0139,0.0147,0.0138,0.0135,0.0107,0.0093,0.0087,0.0063,0.0053,0.0053,0.0045,0.0023,0.0046,0.0012,0.0008,0.0055,0.0063,0.007,0.0076,0.013,0.0144,0.0156,0,0,0,0,0,0,0.0163,0.0144,0.0133,0.0135,0.0119,0.0087,0.0085,0.0069,0.006,0.0059,0.0036,0.0033,0.0064,0.0055,0.0018,0.0104,0.0061,0.0067,0.0103,0.0117,0.0127,0.0154,-0.0014,0,0,0,0,0,0.017,0.0171,0.0148,0.0149,0.0144,0.0116,0.0106,0.0091,0.0078,0.0072,0.0059,0.0066,0.0089,0.0096,0.0102,0.0131,0.0126,0.0171,0.0182,0.0191,0.0215,0.0262,0.0279,0.0102,0.0101,0.0101,0,0,0.0179,0.0169,0.0168,0.0154,0.0139,0.0138,0.011,0.0101,0.0111,0.0073,0.0086,0.0091,0.0105,0.0145,0.0161,0.0141,0.0232,0.02,0.0207,0.0227,0.0271,0.0288,0.0303,0.0106,0.0105,0.0104,0,0,0.0201,0.019,0.0199,0.019,0.0174,0.0157,0.0159,0.0134,0.0137,0.0144,0.0143,0.0185,0.0181,0.0225,0.0243,0.0323,0.0284,0.0326,0.0402,0.0446,0.0461,0.0473,0.045,0.046,0.0336,0.0336,0.0337,0,0.0213,0.022,0.0199,0.0207,0.0204,0.0171,0.0181,0.018,0.0164,0.0196,0.0159,0.0239,0.0233,0.0336,0.0362,0.0349,0.0337,0.0341,0.0458,0.0471,0.0483,0.0456,0.0467,0.034,0.034,0.0339,0.0339,0,0.0241,0.0246,0.0252,0.0251,0.0247,0.0248,0.0242,0.0257,0.025,0.0263,0.0345,0.0352,0.0412,0.0424,0.0406,0.0517,0.0465,0.0457,0.0416,0.0504,0.047,0.048,0.0346,0.0344,0.0343,0.0342,0,0,0.0272,0.0271,0.0275,0.0289,0.027,0.0277,0.0306,0.0343,0.0408,0.0405,0.0498,0.0543,0.0562,0.0588,0.0596,0.0636,0.0683,0.0581,0.0581,0.0541,0.0729,0.0672,0.0676,0.0685,0.0688,0.0691,0.0655,0,0.03,0.0328,0.0316,0.0348,0.0361,0.0354,0.0394,0.043,0.0466,0.0548,0.0597,0.0675,0.0622,0.0667,0.0701,0.0705,0.0718,0.069,0.0665,0.0664,0.0591,0.0691,0.0686,0.0654,0.0664,0.0665,0.0666,0,0.0335,0.0349,0.038,0.0418,0.0427,0.0443,0.0527,0.056,0.0665,0.0706,0.0794,0.0821,0.0905,0.0837,0.0876,0.0854,0.0797,0.0776,0.0774,0.0715,0.0629,0.0579,0.0671,0.0614,0.0681,0.068,0.0679,0,0.0375,0.0402,0.0431,0.0437,0.0469,0.0505,0.0528,0.0618,0.0702,0.0819,0.0903,0.0978,0.104,0.1009,0.0946,0.0915,0.0958,0.091,0.0799,0.079,0.0784,0.0771,0.0813,0.0929,0.0929,0.0929,0.093,0,0.0412,0.0443,0.0457,0.0476,0.0547,0.0549,0.0662,0.0711,0.0836,0.0978,0.0992,0.1122,0.1089,0.1103,0.1005,0.0937,0.0999,0.0838,0.0807,0.08,0.0789,0.0735,0.0691,0.0928,0.0928,0.0929,0.0929,0,0.0454,0.0457,0.0506,0.0545,0.0565,0.0618,0.0726,0.084,0.0921,0.1108,0.1153,0.1252,0.1264,0.1187,0.1146,0.1028,0.0912,0.09,0.0857,0.0823,0.0656,0.0615,0.0606,0.0585,0.0784,0.0783,0.0782,0,0.0477,0.0501,0.0556,0.0607,0.0626,0.0706,0.0792,0.0878,0.1015,0.1204,0.132,0.1375,0.1452,0.1335,0.1147,0.0966,0.089,0.0817,0.0778,0.0678,0.061,0.0572,0.0553,0.0766,0.0765,0.0765,0.0764,0,0.0525,0.0543,0.0586,0.0683,0.0766,0.0878,0.1,0.1117,0.126,0.1406,0.1593,0.1653,0.1537,0.1388,0.1116,0.0981,0.078,0.0792,0.0741,0.0659,0.0575,0.0528,0.0702,0.0756,0.0757,0.0758,0.0758,0.0758,0.0568,0.0611,0.0674,0.0774,0.0883,0.1047,0.1166,0.1319,0.1516,0.1736,0.1772,0.1855,0.1601,0.1247,0.1065,0.0711,0.0718,0.0607,0.0574,0.0551,0.0527,0.0649,0.064,0.064,0.064,0.064,0.064,0,0.0618,0.0673,0.077,0.0903,0.105,0.1094,0.1318,0.1452,0.1679,0.1831,0.196,0.1838,0.1555,0.1221,0.0738,0.0537,0.0475,0.044,0.0417,0.0415,0.0578,0.0575,0.0491,0.0491,0.0491,0.0491,0.0491,0.0491,0.065,0.0739,0.0789,0.102,0.1138,0.1351,0.1489,0.1663,0.18,0.1939,0.1944,0.1929,0.1645,0.0922,0.0479,0.0392,0.0301,0.0246,0.0216,0.0344,0.0358,0.0372,0.0362,0.0235,0.0234,0.0083,0.0081,0.008]}],[{"header":{"parameterUnit":"m.s-1","parameterCategory":2,"la1":30.2991,"la2":30.254,"lo1":-89.0895,"lo2":-89.0444,"dy":0.0017,"dx":0.0017,"nx":28,"ny":28,"refTime":"2025-05-18T09:00:00:Z","depth":"2","parameterNumber":2,"parameterNumberName":"U-component_of_CURRENTS"},"data":[0,0,0,0,0,0,0,0,0,0,0,0,0,0,0,0,0,0,0,0,0,0,0,0,0,0,0,0,0,0,0,0,0,0,0,0,0,0,0,0,0,0,0,0,0,0,0,0,0,0,0,0,0,0,0,0,0,0,0.2188,0.2189,0,0.2232,0.2232,0.2232,0.2251,0.2251,0.2251,0.2251,0.2439,0.2443,0.2448,0,0,0,0,0,0,0,0,0,0,0,0,0,0.2148,0.2149,0.2188,0.2189,0.219,0.2232,0.2232,0.2232,0.225,0.2251,0.2251,0.2251,0.2437,0.2443,0.2448,0,0,0,0,0,0,0,0,0,0,0,0,0,0.2172,0.2149,0.2188,0.2207,0.2209,0.2232,0.2232,0.2232,0.225,0.2251,0.2251,0.2252,0.2435,0.2442,0.2449,0.2485,0,0,0.2471,0.2474,0,0,0,0,0,0,0,0,0.2171,0.2173,0.2203,0.2206,0.2208,0.224,0.2287,0.2325,0.225,0.2231,0.2251,0.2252,0.2388,0.2399,0.2398,0.2494,0.2502,0.2472,0.2476,0.2479,0.2481,0,0,0,0,0,0,0,0.2169,0.2172,0.2201,0.2204,0.2207,0.2223,0.2226,0.2294,0.2306,0.2232,0.2235,0.2246,0.239,0.2391,0.2404,0.2505,0.2471,0.2478,0.2482,0.2485,0.2733,0.2736,0,0,0,0,0,0,0.217,0.217,0.22,0.2203,0.2195,0.2224,0.2227,0.2226,0.2302,0.2314,0.2245,0.2246,0.2379,0.2395,0.2411,0.256,0.2479,0.2486,0.249,0.2731,0.2734,0.2736,0,0,0,0,0,0,0.2168,0.2171,0.2198,0.2191,0.2197,0.2224,0.2223,0.2227,0.2249,0.2311,0.2325,0.2266,0.238,0.2401,0.2481,0.2564,0.2489,0.2495,0.2728,0.2732,0.2735,0.2795,0,0,0,0,0,0,0.2167,0.217,0.2172,0.2191,0.2197,0.2232,0.2223,0.2227,0.2256,0.2258,0.2334,0.235,0.2382,0.247,0.2488,0.2572,0.2501,0.2725,0.273,0.2734,0.279,0.28,0.2809,0,0,0,0,0,0.2165,0.2169,0.2171,0.2175,0.2197,0.2234,0.2239,0.2257,0.2257,0.2276,0.2317,0.2349,0.2512,0.2477,0.2498,0.2586,0.2723,0.2729,0.2734,0.2786,0.2798,0.2808,0,0,0,0,0,0,0.2159,0.2172,0.2175,0.2184,0.2216,0.2239,0.2255,0.2268,0.2311,0.2323,0.2367,0.2387,0.2497,0.2522,0.2482,0.2669,0.2629,0.2638,0.2662,0.2674,0.2683,0.2687,0.2507,0,0,0,0,0,0.2156,0.216,0.2185,0.2197,0.2211,0.2235,0.2252,0.2274,0.2313,0.233,0.236,0.2428,0.2531,0.2582,0.2648,0.2742,0.2735,0.2816,0.2825,0.2833,0.285,0.2886,0.2899,0.2754,0.2754,0.2754,0,0,0.2159,0.2168,0.217,0.2197,0.2216,0.2251,0.2246,0.2288,0.2336,0.235,0.2401,0.2458,0.256,0.2667,0.2721,0.2703,0.2866,0.2839,0.2846,0.2859,0.2893,0.2907,0.2919,0.2757,0.2757,0.2756,0,0,0.2171,0.2173,0.2183,0.2209,0.2252,0.2276,0.2294,0.2317,0.2349,0.2408,0.2455,0.2544,0.2641,0.2739,0.2811,0.2912,0.291,0.2946,0.3009,0.3044,0.3055,0.3066,0.3047,0.3055,0.2955,0.2955,0.2955,0,0.2176,0.2193,0.2197,0.2222,0.2254,0.229,0.2329,0.2375,0.2418,0.2472,0.2434,0.2628,0.2686,0.2897,0.2923,0.294,0.2928,0.2959,0.3054,0.3065,0.3074,0.3053,0.3061,0.2959,0.2958,0.2958,0.2957,0,0.2197,0.2221,0.2235,0.2274,0.2306,0.2355,0.2414,0.246,0.2488,0.2536,0.2692,0.2758,0.2884,0.2928,0.2958,0.3106,0.3062,0.3054,0.302,0.3092,0.3065,0.3072,0.2964,0.2962,0.2961,0.296,0,0,0.2188,0.224,0.2247,0.2278,0.2345,0.2377,0.2475,0.2585,0.2674,0.2723,0.2815,0.3,0.3031,0.3113,0.3179,0.3208,0.3244,0.3157,0.3157,0.3127,0.3278,0.3096,0.3086,0.3244,0.3247,0.3249,0.3219,0,0.2214,0.2262,0.2288,0.236,0.2396,0.2467,0.2553,0.266,0.2745,0.2823,0.2956,0.3068,0.3116,0.3175,0.3231,0.3249,0.3272,0.325,0.3223,0.3222,0.3043,0.3093,0.2868,0.281,0.3226,0.3228,0.3228,0,0.2226,0.2264,0.2318,0.2416,0.2439,0.2494,0.2649,0.2744,0.2906,0.296,0.3115,0.3174,0.3321,0.327,0.3395,0.3375,0.3338,0.3316,0.3314,0.3134,0.3055,0.2813,0.2808,0.3241,0.324,0.3239,0.3238,0,0.2203,0.2289,0.2333,0.236,0.2468,0.2534,0.2628,0.2796,0.2898,0.3057,0.3124,0.3289,0.3357,0.3386,0.3388,0.3386,0.3409,0.3401,0.3212,0.3197,0.2996,0.2958,0.3435,0.3435,0.3435,0.3435,0.3436,0,0.221,0.2253,0.2331,0.2353,0.2443,0.2536,0.2674,0.2791,0.2951,0.3049,0.3215,0.3298,0.338,0.3413,0.3389,0.3326,0.3437,0.3227,0.3189,0.3004,0.297,0.3344,0.3334,0.3434,0.3435,0.3435,0.3435,0,0.2167,0.2215,0.2272,0.2384,0.2422,0.2497,0.2674,0.2799,0.2967,0.3084,0.3129,0.3304,0.3337,0.3383,0.3367,0.332,0.3263,0.3196,0.2942,0.2873,0.3021,0.3015,0.2998,0.2991,0.2986,0.2982,0.2978,0,0.2148,0.2164,0.2257,0.2311,0.2365,0.249,0.2594,0.2771,0.2885,0.3074,0.3112,0.3197,0.3198,0.3162,0.3061,0.297,0.3098,0.2702,0.2665,0.3017,0.2983,0.2985,0.2986,0.2419,0.2411,0.2404,0.2399,0,0.2111,0.2133,0.218,0.2273,0.2369,0.2477,0.2626,0.2689,0.2869,0.2926,0.297,0.2966,0.294,0.2732,0.2635,0.2565,0.2702,0.2558,0.3023,0.2549,0.2464,0.2432,0.2454,0.234,0.2346,0.235,0.2353,0.2356,0.2083,0.2105,0.2159,0.2247,0.2351,0.2452,0.2477,0.2576,0.2624,0.2631,0.2709,0.2599,0.2569,0.2287,0.2168,0.2089,0.2279,0.219,0.2215,0.2245,0.2168,0.2077,0.1863,0.1866,0.1869,0.1871,0.1873,0,0.2045,0.2087,0.2155,0.2226,0.2287,0.2385,0.2476,0.2429,0.2348,0.2347,0.2267,0.2002,0.1848,0.1845,0.1619,0.1566,0.1604,0.1506,0.1565,0.1622,0.1674,0.1573,0.1108,0.1105,0.1103,0.1101,0,0,0.2038,0.205,0.2075,0.2121,0.2199,0.2189,0.2207,0.2092,0.203,0.1842,0.1716,0.1775,0.18,0.1452,0.1374,0.1212,0.1423,0.1155,0.1771,0.1902,0.1951,0.2063,0.1969,0,0,0,0,0]},{"header":{"parameterUnit":"m.s-1","parameterCategory":2,"la1":30.2991,"la2":30.254,"lo1":-89.0895,"lo2":-89.0444,"dy":0.0017,"dx":0.0017,"nx":28,"ny":28,"refTime":"2025-05-18T09:00:00:Z","depth":"2","parameterNumber":3,"parameterNumberName":"V-component_of_CURRENTS"},"data":[0,0,0,0,0,0,0,0,0,0,0,0,0,0,0,0,0,0,0,0,0,0,0,0,0,0,0,0,0,0,0,0,0,0,0,0,0,0,0,0,0,0,0,0,0,0,0,0,0,0,0,0,0,0,0,0,0,0,0.0016,0.0016,0,-0.002,-0.002,-0.002,-0.0051,-0.0051,-0.0051,-0.0052,-0.0191,-0.0194,-0.0197,0,0,0,0,0,0,0,0,0,0,0,0,0,0.0046,0.0046,0.0016,0.0016,0.0015,-0.002,-0.002,-0.002,-0.0051,-0.0051,-0.0051,-0.0052,-0.019,-0.0194,-0.0198,0,0,0,0,0,0,0,0,0,0,0,0,0,0.0024,0.0046,0.0016,-0.0004,-0.0006,-0.0019,-0.002,-0.0021,-0.005,-0.0051,-0.0052,-0.0052,-0.0188,-0.0193,-0.0198,-0.0218,0,0,-0.0214,-0.0216,0,0,0,0,0,0,0,0,0.0026,0.0023,-0.0001,-0.0003,-0.0005,-0.0032,-0.006,-0.0092,-0.005,-0.0033,-0.0052,-0.0052,-0.0147,-0.0155,-0.0159,-0.0225,-0.0231,-0.0214,-0.0217,-0.0219,-0.0221,0,0,0,0,0,0,0,0.0027,0.0025,0.0002,-0.0001,-0.0004,-0.0016,-0.0019,-0.0066,-0.0088,-0.0035,-0.0037,-0.0042,-0.0149,-0.0154,-0.0163,-0.0233,-0.0214,-0.0218,-0.0221,-0.0223,-0.0252,-0.0249,0,0,0,0,0,0,0.0032,0.0026,0.0003,0.0001,0.0009,-0.0016,-0.002,-0.0022,-0.0086,-0.0095,-0.0041,-0.0043,-0.0145,-0.0157,-0.0168,-0.0163,-0.0219,-0.0224,-0.0227,-0.0254,-0.0251,-0.0249,0,0,0,0,0,0,0.0033,0.0031,0.0005,0.0012,0.0008,-0.0016,-0.0018,-0.0023,-0.003,-0.0089,-0.0101,-0.0044,-0.0146,-0.0161,-0.0186,-0.017,-0.0226,-0.0231,-0.0256,-0.0253,-0.025,-0.0175,0,0,0,0,0,0,0.0034,0.0031,0.0034,0.0013,0.0008,0.0001,-0.0018,-0.0023,-0.0032,-0.0034,-0.0096,-0.0109,-0.0147,-0.0177,-0.0191,-0.0178,-0.0235,-0.0259,-0.0255,-0.0251,-0.018,-0.017,-0.016,0,0,0,0,0,0.0035,0.0041,0.0034,0.0031,0.0011,0.0001,-0.0002,-0.0021,-0.0031,-0.003,-0.0055,-0.0107,-0.0159,-0.018,-0.0196,-0.0185,-0.0261,-0.0256,-0.0251,-0.0185,-0.0172,-0.0161,0,0,0,0,0,0,0.0054,0.0037,0.003,0.0029,0.0018,-0.0004,-0.0004,-0.0017,-0.0035,-0.004,-0.0093,-0.0107,-0.012,-0.0154,-0.0175,-0.0172,-0.0214,-0.0211,-0.0158,-0.0146,-0.0136,-0.0101,-0.0239,0,0,0,0,0,0.006,0.0061,0.0042,0.0043,0.0039,0.0019,0.0013,-0.0,-0.002,-0.0028,-0.0064,-0.0091,-0.0109,-0.0129,-0.0155,-0.0167,-0.0176,-0.0161,-0.0151,-0.0143,-0.0119,-0.0076,-0.006,-0.0232,-0.0232,-0.0232,0,0,0.0067,0.0059,0.0059,0.0048,0.0038,0.0034,0.0014,0.0007,0.0009,-0.0043,-0.0048,-0.0068,-0.0103,-0.0104,-0.0113,-0.0135,-0.0107,-0.0136,-0.0129,-0.011,-0.0069,-0.0053,-0.0038,-0.0228,-0.0229,-0.0229,0,0,0.0086,0.0076,0.0084,0.0077,0.0065,0.0048,0.0048,0.0031,0.003,0.0024,0.0001,0.0012,-0.0044,-0.0037,-0.0049,0.0004,-0.0054,-0.0018,0.0053,0.0095,0.0109,0.0121,0.0091,0.01,-0.0013,-0.0013,-0.0013,0,0.0096,0.0102,0.0085,0.0091,0.0091,0.0056,0.0065,0.0057,0.0037,0.0065,0.0031,0.0045,0.0,0.004,0.0056,0.0026,0.0014,0.0001,0.0107,0.012,0.0132,0.0097,0.0107,-0.0008,-0.0009,-0.0009,-0.001,0,0.0118,0.0124,0.0128,0.0123,0.012,0.0121,0.0106,0.0117,0.0108,0.0117,0.0161,0.0134,0.0156,0.0139,0.01,0.017,0.0119,0.0112,0.0073,0.0153,0.0111,0.012,-0.0002,-0.0004,-0.0005,-0.0006,0,0,0.0142,0.0144,0.0147,0.0161,0.014,0.0145,0.0159,0.0186,0.0236,0.0225,0.0306,0.0283,0.0297,0.029,0.0261,0.0287,0.0328,0.0232,0.0232,0.0194,0.0368,0.0303,0.0304,0.0337,0.034,0.0342,0.0289,0,0.0167,0.019,0.0183,0.0207,0.0216,0.0211,0.0239,0.0264,0.0286,0.0354,0.037,0.0415,0.0342,0.0367,0.0386,0.0355,0.0361,0.0339,0.0303,0.0301,0.023,0.0318,0.0336,0.0289,0.0297,0.0298,0.0299,0,0.0195,0.0207,0.0235,0.0273,0.0282,0.0291,0.0361,0.0376,0.0457,0.0494,0.0556,0.0567,0.0608,0.0542,0.0533,0.0519,0.0452,0.0415,0.0413,0.0342,0.0255,0.0221,0.0304,0.0313,0.0312,0.0311,0.031,0,0.0226,0.0251,0.0279,0.0284,0.0313,0.035,0.036,0.0429,0.0498,0.0586,0.0673,0.0706,0.0743,0.07,0.06,0.0578,0.0577,0.0539,0.0413,0.0404,0.041,0.0397,0.0549,0.0549,0.0549,0.0549,0.0549,0,0.0257,0.0285,0.0299,0.0316,0.0381,0.038,0.0474,0.0509,0.0615,0.0736,0.0742,0.0847,0.0792,0.0782,0.0665,0.0559,0.0623,0.0448,0.0415,0.0429,0.042,0.0441,0.0429,0.0547,0.0547,0.0548,0.0548,0,0.0291,0.0296,0.0337,0.0375,0.0395,0.0435,0.0532,0.0623,0.0692,0.0856,0.0901,0.0973,0.0945,0.0848,0.0769,0.0647,0.0547,0.0483,0.0461,0.0428,0.0319,0.0312,0.0361,0.0359,0.0357,0.0356,0.0354,0,0.031,0.033,0.0379,0.0424,0.0443,0.0507,0.0582,0.0653,0.0775,0.0938,0.1048,0.107,0.11,0.0925,0.0738,0.0534,0.051,0.0397,0.0378,0.0352,0.0314,0.0309,0.0305,0.0388,0.0387,0.0386,0.0386,0,0.0348,0.0363,0.0398,0.0487,0.056,0.0658,0.0769,0.0884,0.1006,0.1128,0.1269,0.1286,0.1135,0.0952,0.0668,0.0533,0.0434,0.0374,0.0414,0.0427,0.0373,0.0336,0.0332,0.038,0.038,0.0381,0.0381,0.0381,0.0384,0.0417,0.0473,0.0563,0.0659,0.0812,0.0921,0.1057,0.1221,0.1392,0.1389,0.1369,0.1179,0.0805,0.0589,0.0363,0.038,0.0289,0.0294,0.0299,0.0306,0.0253,0.0233,0.0233,0.0233,0.0233,0.0233,0,0.0425,0.0471,0.0556,0.0675,0.0805,0.0846,0.1064,0.1174,0.1355,0.1423,0.1473,0.1245,0.1038,0.0802,0.047,0.0269,0.0275,0.0195,0.0257,0.0265,0.0271,0.028,0.0198,0.0197,0.0196,0.0196,0,0,0.0452,0.0527,0.0569,0.0776,0.0883,0.1077,0.1209,0.1333,0.142,0.1449,0.1399,0.1333,0.1075,0.0815,0.0568,0.0383,0.0364,0.034,0.0391,0.0503,0.0512,0.035,0.0374,0,0,0,0,0]}],[{"header":{"parameterUnit":"m.s-1","parameterCategory":2,"la1":30.2991,"la2":30.254,"lo1":-89.0895,"lo2":-89.0444,"dy":0.0017,"dx":0.0017,"nx":28,"ny":28,"refTime":"2025-05-18T09:00:00:Z","depth":"4","parameterNumber":2,"parameterNumberName":"U-component_of_CURRENTS"},"data":[0,0,0,0,0,0,0,0,0,0,0,0,0,0,0,0,0,0,0,0,0,0,0,0,0,0,0,0,0,0,0,0,0,0,0,0,0,0,0,0,0,0,0,0,0,0,0,0,0,0,0,0,0,0,0,0,0,0,0.1323,0.1322,0,0.1133,0.113,0.1127,0.1034,0.1035,0.1037,0.1038,0.0925,0.0921,0.0917,0,0,0,0,0,0,0,0,0,0,0,0,0,0.137,0.137,0.1323,0.1322,0.1321,0.1134,0.113,0.1126,0.1034,0.1035,0.1037,0.1038,0.0926,0.0921,0.0916,0,0,0,0,0,0,0,0,0,0,0,0,0,0.127,0.137,0.1324,0.1262,0.1255,0.1135,0.113,0.1125,0.1034,0.1035,0.1037,0.1039,0.0928,0.0922,0.0916,0.0842,0,0,0.0897,0.0894,0,0,0,0,0,0,0,0,0.1276,0.1267,0.1272,0.1266,0.1259,0.1121,0.1105,0.1039,0.1033,0.1104,0.1038,0.104,0.1005,0.0992,0.0933,0.0836,0.0832,0.0896,0.0893,0.089,0.0888,0,0,0,0,0,0,0,0.1283,0.1273,0.1235,0.1271,0.1263,0.1164,0.1152,0.109,0.1038,0.1098,0.1094,0.1093,0.1,0.0939,0.093,0.083,0.0896,0.0891,0.0887,0.0885,0.0863,0.0866,0,0,0,0,0,0,0.1343,0.1281,0.1241,0.1231,0.1286,0.1163,0.115,0.1153,0.1037,0.1024,0.1092,0.109,0.0949,0.0937,0.0926,0.0932,0.089,0.0884,0.0881,0.086,0.0864,0.0867,0,0,0,0,0,0,0.1345,0.1341,0.1249,0.1261,0.1244,0.1164,0.1165,0.1148,0.1126,0.1034,0.102,0.1094,0.095,0.0935,0.0892,0.0924,0.0881,0.0876,0.0856,0.0861,0.0866,0.088,0,0,0,0,0,0,0.1347,0.1343,0.1362,0.1266,0.1247,0.1199,0.1165,0.1144,0.1126,0.1122,0.103,0.1019,0.095,0.0902,0.0886,0.0915,0.0871,0.0852,0.0858,0.0864,0.0876,0.0885,0.0893,0,0,0,0,0,0.1349,0.1363,0.1364,0.136,0.1277,0.1201,0.1179,0.1117,0.1126,0.1105,0.1052,0.1024,0.0931,0.0896,0.0878,0.0906,0.0849,0.0857,0.0864,0.0872,0.0883,0.0893,0,0,0,0,0,0,0.1378,0.1353,0.1352,0.1357,0.1302,0.1191,0.1174,0.1144,0.1079,0.1093,0.1013,0.0995,0.0966,0.0956,0.092,0.0933,0.0907,0.091,0.092,0.093,0.0938,0.1008,0.0866,0,0,0,0,0,0.1404,0.1418,0.1363,0.1367,0.1353,0.1276,0.1244,0.1207,0.1142,0.1115,0.105,0.1018,0.0972,0.0969,0.0908,0.0901,0.0931,0.0934,0.0942,0.0948,0.1003,0.1085,0.1105,0.089,0.089,0.089,0,0,0.1416,0.1407,0.1413,0.1376,0.1331,0.1276,0.1257,0.1224,0.117,0.1116,0.1038,0.1013,0.0972,0.094,0.0939,0.0944,0.1014,0.0957,0.0962,0.1015,0.1095,0.1116,0.1134,0.0895,0.0894,0.0893,0,0,0.1424,0.1444,0.1448,0.1406,0.137,0.1309,0.132,0.1234,0.1197,0.1148,0.109,0.1124,0.1033,0.1022,0.1007,0.1054,0.103,0.1034,0.1149,0.1226,0.1244,0.126,0.1263,0.128,0.1069,0.107,0.107,0,0.1442,0.1426,0.143,0.1404,0.1358,0.1335,0.1284,0.1233,0.114,0.1155,0.1151,0.1127,0.1094,0.1095,0.1114,0.1074,0.1079,0.1089,0.1234,0.1252,0.1268,0.1269,0.1287,0.1071,0.1071,0.1071,0.1071,0,0.1425,0.1409,0.1404,0.1362,0.1319,0.1274,0.1216,0.1201,0.1202,0.1193,0.1224,0.1195,0.123,0.1214,0.1172,0.1266,0.1211,0.1199,0.1197,0.129,0.1284,0.1303,0.1073,0.1073,0.1072,0.1072,0,0,0.1445,0.14,0.1396,0.1351,0.1287,0.1237,0.1206,0.1179,0.1227,0.1221,0.1279,0.1278,0.1362,0.1359,0.1325,0.1409,0.1506,0.1369,0.1372,0.1353,0.1616,0.146,0.1465,0.1496,0.1501,0.1505,0.154,0,0.1411,0.1354,0.1333,0.1238,0.1183,0.1166,0.1151,0.1157,0.1198,0.1256,0.1336,0.138,0.1376,0.1424,0.1509,0.1496,0.1567,0.1495,0.155,0.1552,0.1387,0.1488,0.1521,0.1554,0.1558,0.1561,0.1564,0,0.1379,0.1333,0.126,0.1186,0.1172,0.1133,0.115,0.1144,0.1266,0.1331,0.1463,0.1504,0.1618,0.1608,0.1726,0.1667,0.1675,0.1676,0.1676,0.1559,0.1436,0.1462,0.1598,0.1595,0.1592,0.159,0.1588,0,0.1362,0.1265,0.1205,0.1167,0.1112,0.1109,0.1108,0.1209,0.1255,0.141,0.1504,0.1635,0.1716,0.1784,0.1815,0.1782,0.1914,0.1866,0.1727,0.1711,0.1827,0.181,0.1982,0.1982,0.1982,0.1982,0.1982,0,0.1306,0.1251,0.1201,0.1162,0.112,0.1117,0.1157,0.1218,0.1357,0.1457,0.1569,0.1646,0.1778,0.1845,0.1857,0.185,0.1966,0.1783,0.1742,0.1822,0.1805,0.1835,0.1818,0.1983,0.1983,0.1983,0.1983,0,0.1295,0.1266,0.1186,0.1132,0.1113,0.1109,0.1137,0.1196,0.1357,0.1482,0.1539,0.1696,0.1795,0.1858,0.1958,0.1894,0.1903,0.186,0.1917,0.1872,0.1626,0.161,0.1728,0.1724,0.172,0.1717,0.1714,0,0.1273,0.1247,0.1175,0.113,0.1097,0.1084,0.1092,0.1195,0.1269,0.1486,0.1537,0.1684,0.1763,0.1776,0.1851,0.1859,0.1828,0.1799,0.1761,0.1668,0.1617,0.1606,0.1595,0.1708,0.1707,0.1706,0.1705,0,0.1221,0.1238,0.1174,0.1096,0.1048,0.0996,0.1022,0.1075,0.124,0.138,0.1512,0.1567,0.1651,0.171,0.1722,0.172,0.1811,0.1759,0.1766,0.173,0.1645,0.1595,0.1589,0.1692,0.1694,0.1695,0.1696,0,0.1194,0.1142,0.1086,0.0995,0.0959,0.091,0.0924,0.0975,0.1059,0.1337,0.1367,0.1511,0.1653,0.1635,0.1647,0.164,0.1611,0.1541,0.1559,0.1575,0.1506,0.1373,0.1342,0,0,0,0,0,0.1137,0.1053,0.097,0.0855,0.0845,0.0817,0.0869,0.0917,0.1093,0.1158,0.1278,0.1355,0.1413,0.1471,0.1432,0.1537,0.1586,0.1478,0.1507,0.1619,0.1634,0.1565,0,0,0,0,0,0,0.1073,0.1008,0.0923,0.0769,0.0711,0.066,0.0698,0.0807,0.0863,0.1076,0.1117,0.126,0.1329,0.144,0.1411,0.1424,0.1405,0.1569,0.1564,0.161,0.1624,0.1636,0.1571,0,0,0,0,0]},{"header":{"parameterUnit":"m.s-1","parameterCategory":2,"la1":30.2991,"la2":30.254,"lo1":-89.0895,"lo2":-89.0444,"dy":0.0017,"dx":0.0017,"nx":28,"ny":28,"refTime":"2025-05-18T09:00:00:Z","depth":"4","parameterNumber":3,"parameterNumberName":"V-component_of_CURRENTS"},"data":[0,0,0,0,0,0,0,0,0,0,0,0,0,0,0,0,0,0,0,0,0,0,0,0,0,0,0,0,0,0,0,0,0,0,0,0,0,0,0,0,0,0,0,0,0,0,0,0,0,0,0,0,0,0,0,0,0,0,0.0046,0.0046,0,0.0095,0.0097,0.0098,0.0122,0.0121,0.012,0.012,0.0353,0.0359,0.0366,0,0,0,0,0,0,0,0,0,0,0,0,0,0.0049,0.0049,0.0046,0.0046,0.0046,0.0095,0.0097,0.0098,0.0122,0.0121,0.012,0.012,0.035,0.0358,0.0366,0,0,0,0,0,0,0,0,0,0,0,0,0,0.0074,0.0049,0.0046,0.0059,0.006,0.0095,0.0097,0.0098,0.0122,0.0121,0.012,0.0119,0.0348,0.0358,0.0368,0.0448,0,0,0.0399,0.0403,0,0,0,0,0,0,0,0,0.0072,0.0074,0.0057,0.0058,0.0059,0.0096,0.0183,0.0222,0.0122,0.0105,0.012,0.0119,0.028,0.0296,0.0314,0.0459,0.0469,0.0399,0.0406,0.041,0.0413,0,0,0,0,0,0,0,0.007,0.0073,0.0072,0.0057,0.0058,0.0088,0.0091,0.019,0.0205,0.0106,0.0107,0.0103,0.0283,0.0304,0.032,0.0472,0.0399,0.0408,0.0414,0.0418,0.0623,0.0622,0,0,0,0,0,0,0.0048,0.0071,0.007,0.0073,0.0057,0.0088,0.0092,0.009,0.02,0.0213,0.0103,0.0103,0.0287,0.0308,0.0328,0.041,0.041,0.0419,0.0425,0.0623,0.0623,0.0622,0,0,0,0,0,0,0.0048,0.0048,0.0068,0.0068,0.0071,0.0088,0.0087,0.0091,0.0107,0.0195,0.0212,0.0112,0.0287,0.0314,0.0419,0.042,0.0424,0.0433,0.0624,0.0623,0.0622,0.0587,0,0,0,0,0,0,0.0048,0.0048,0.005,0.0066,0.007,0.0086,0.0087,0.0093,0.0103,0.0104,0.0209,0.0229,0.0288,0.0403,0.0429,0.0434,0.0441,0.0625,0.0624,0.0623,0.0589,0.0585,0.0581,0,0,0,0,0,0.0048,0.0052,0.005,0.005,0.0069,0.0086,0.0092,0.0105,0.0104,0.0116,0.0188,0.0226,0.0411,0.0413,0.0442,0.045,0.0626,0.0624,0.0623,0.0591,0.0586,0.0581,0,0,0,0,0,0,0.0058,0.0054,0.0053,0.0056,0.0066,0.0087,0.0099,0.0104,0.0168,0.0177,0.0255,0.0283,0.0364,0.0412,0.0411,0.0496,0.051,0.0515,0.0475,0.0472,0.0468,0.0479,0.0449,0,0,0,0,0,0.0057,0.0059,0.0061,0.0066,0.0067,0.0083,0.0093,0.0101,0.0148,0.0172,0.024,0.031,0.0382,0.043,0.0502,0.0581,0.0575,0.0588,0.0585,0.0581,0.0606,0.0566,0.0561,0.0617,0.0617,0.0617,0,0,0.0061,0.006,0.0061,0.0068,0.0079,0.0103,0.0089,0.0103,0.0136,0.0196,0.0274,0.0317,0.0399,0.047,0.0508,0.0515,0.0558,0.058,0.0577,0.0604,0.0564,0.0559,0.0554,0.0616,0.0616,0.0616,0,0,0.0075,0.0069,0.0078,0.009,0.0097,0.0114,0.0114,0.0136,0.0156,0.023,0.0264,0.0308,0.0431,0.0472,0.0514,0.0537,0.0539,0.0538,0.0543,0.0503,0.0498,0.0494,0.0458,0.0451,0.0535,0.0535,0.0535,0,0.0082,0.0095,0.0085,0.0103,0.0124,0.0119,0.0151,0.0174,0.0229,0.0257,0.0252,0.037,0.0433,0.0507,0.0506,0.0532,0.0505,0.0557,0.0498,0.0494,0.049,0.0454,0.0447,0.0533,0.0534,0.0534,0.0534,0,0.0106,0.0123,0.0131,0.0158,0.0181,0.0203,0.0227,0.0255,0.0273,0.0292,0.0348,0.04,0.0467,0.0466,0.0514,0.0515,0.05,0.0494,0.0509,0.0482,0.0446,0.0439,0.0531,0.0531,0.0532,0.0532,0,0,0.0112,0.0142,0.0148,0.018,0.0213,0.0241,0.0292,0.0338,0.0373,0.0388,0.042,0.0495,0.0481,0.0525,0.0539,0.0507,0.0451,0.0492,0.0491,0.0458,0.0352,0.0347,0.0339,0.0419,0.0418,0.0417,0.0329,0,0.014,0.0185,0.0201,0.0272,0.0303,0.0329,0.0389,0.0428,0.0447,0.0473,0.047,0.0516,0.0513,0.0531,0.0495,0.0481,0.0435,0.0476,0.0385,0.0383,0.0382,0.0332,0.0415,0.0324,0.0322,0.0321,0.032,0,0.0167,0.0198,0.0255,0.0342,0.0361,0.0412,0.0495,0.0544,0.0569,0.0578,0.0575,0.0564,0.0559,0.0527,0.0463,0.0483,0.0424,0.0381,0.0376,0.039,0.0366,0.0362,0.0308,0.0309,0.031,0.0311,0.0312,0,0.018,0.025,0.0301,0.0325,0.0408,0.0462,0.0524,0.0577,0.0627,0.063,0.0637,0.0608,0.0601,0.0516,0.0446,0.0447,0.0335,0.0323,0.0253,0.0252,0.0301,0.0307,0.0245,0.0245,0.0245,0.0245,0.0245,0,0.0208,0.0258,0.0315,0.0345,0.0443,0.0496,0.0596,0.0639,0.0687,0.0732,0.0689,0.0686,0.0592,0.0518,0.0436,0.0331,0.0325,0.0256,0.0228,0.0284,0.0289,0.0294,0.0301,0.0242,0.0242,0.0243,0.0244,0,0.0215,0.0242,0.031,0.0402,0.0446,0.0517,0.0657,0.0723,0.0756,0.0796,0.0797,0.0746,0.0658,0.0548,0.0413,0.0337,0.0228,0.0183,0.0253,0.0231,0.017,0.0176,0.0099,0.0098,0.0097,0.0097,0.0096,0,0.0223,0.0249,0.0341,0.0397,0.0447,0.0564,0.0656,0.0748,0.0808,0.083,0.0841,0.0766,0.0713,0.0513,0.0399,0.0224,0.0199,0.0132,0.0153,0.0174,0.0155,0.0162,0.0169,0.0095,0.0095,0.0094,0.0094,0,0.0243,0.0261,0.0312,0.0417,0.0516,0.0627,0.0754,0.0802,0.0886,0.0907,0.087,0.0767,0.0657,0.0509,0.0374,0.0248,0.0174,0.0123,0.0124,0.0144,0.0168,0.0151,0.0159,0.0091,0.0092,0.0092,0.0092,0,0.0257,0.0287,0.0345,0.0449,0.0559,0.0661,0.0733,0.0816,0.0878,0.0905,0.0882,0.0764,0.0705,0.0519,0.0394,0.0275,0.0246,0.0198,0.0194,0.0196,0.0255,0.0302,0.0241,0,0,0,0,0,0.0273,0.031,0.0393,0.0499,0.0602,0.0667,0.079,0.085,0.0918,0.0898,0.0898,0.0794,0.0607,0.0525,0.0406,0.0377,0.0224,0.0231,0.0166,0.0076,0.0079,0.0133,0,0,0,0,0,0,0.0285,0.0344,0.0383,0.0516,0.0594,0.0714,0.0784,0.083,0.083,0.0862,0.0769,0.0743,0.0569,0.0667,0.0392,0.0359,0.0296,0.0156,0.0153,0.0074,0.0077,0.008,0.0136,0,0,0,0,0]}]]